| time (UTC) | temp F | wind direction | speed MPH | gust MPH | rain 1hr in | rain 24hr in | rain mn in | humidity % | barometer mb |
| 20260507130023 | 57 | 350 | 1.0 | 4.0 | 0.01 | 0.16 | 0.13 | 92 | 1011.5 |
| 20260507124503 | 57 | 32 | 1.0 | 5.0 | 0.02 | 0.16 | 0.13 | 93 | 1011.3 |
| 20260507123008 | 57 | 117 | 1.0 | 6.0 | 0.02 | 0.16 | 0.13 | 93 | 1011.5 |
| 20260507121514 | 57 | 1 | 2.0 | 5.0 | 0.02 | 0.15 | 0.12 | 92 | 1011.5 |
| 20260507120019 | 57 | 359 | 1.0 | 7.0 | 0.02 | 0.15 | 0.12 | 92 | 1011.5 |
| 20260507114522 | 57 | 20 | 1.0 | 7.0 | 0.02 | 0.14 | 0.11 | 92 | 1011.1 |
| 20260507113006 | 58 | 360 | 1.0 | 6.0 | 0.02 | 0.14 | 0.11 | 91 | 1011.4 |
| 20260507111513 | 58 | 68 | 2.0 | 6.0 | 0.02 | 0.13 | 0.10 | 91 | 1011.2 |
| 20260507110020 | 58 | 30 | 3.0 | 7.0 | 0.03 | 0.13 | 0.10 | 91 | 1011.1 |
| 20260507104521 | 59 | 47 | 2.0 | 6.0 | 0.03 | 0.12 | 0.09 | 92 | 1010.6 |
| 20260507103029 | 59 | 88 | 2.0 | 8.0 | 0.05 | 0.12 | 0.09 | 92 | 1010.6 |
| 20260507101512 | 59 | 334 | 3.0 | 7.0 | 0.05 | 0.11 | 0.08 | 92 | 1010.6 |
| 20260507100017 | 60 | 56 | 1.0 | 5.0 | 0.06 | 0.10 | 0.07 | 91 | 1010.6 |
| 20260507094518 | 61 | 345 | 1.0 | 7.0 | 0.06 | 0.09 | 0.06 | 91 | 1010.3 |
| 20260507093024 | 62 | 332 | 4.0 | 7.0 | 0.04 | 0.07 | 0.04 | 90 | 1010.3 |
| 20260507091536 | 65 | 358 | 2.0 | 6.0 | 0.03 | 0.06 | 0.03 | 90 | 1010.0 |
| 20260507090012 | 67 | 339 | 0.0 | 3.0 | 0.01 | 0.04 | 0.01 | 90 | 1009.4 |
| 20260507084510 | 67 | 1 | 1.0 | 4.0 | 0.00 | 0.03 | 0.00 | 89 | 1009.4 |
| 20260507083004 | 67 | 260 | 1.0 | 3.0 | 0.00 | 0.03 | 0.00 | 89 | 1009.2 |
| 20260507081507 | 67 | 269 | 2.0 | 3.0 | 0.00 | 0.03 | 0.00 | 88 | 1009.3 |
| 20260507080009 | 67 | 254 | 2.0 | 4.0 | 0.00 | 0.03 | 0.00 | 88 | 1009.2 |
| 20260507074514 | 67 | 321 | 1.0 | 7.0 | 0.00 | 0.03 | 0.00 | 88 | 1009.4 |
| 20260507073003 | 68 | 289 | 2.0 | 7.0 | 0.00 | 0.03 | 0.00 | 88 | 1009.4 |
| 20260507071503 | 68 | 315 | 2.0 | 9.0 | 0.00 | 0.03 | 0.00 | 87 | 1009.4 |
| 20260507070011 | 68 | 155 | 3.0 | 10.0 | 0.00 | 0.03 | 0.00 | 87 | 1009.1 |
| 20260507064510 | 68 | 258 | 4.0 | 8.0 | 0.00 | 0.03 | 0.00 | 87 | 1009.0 |
| 20260507063018 | 68 | 207 | 1.0 | 6.0 | 0.00 | 0.03 | 0.00 | 87 | 1008.7 |
| 20260507061504 | 69 | 230 | 2.0 | 8.0 | 0.00 | 0.03 | 0.00 | 85 | 1008.8 |
| 20260507060017 | 70 | 224 | 3.0 | 11.0 | 0.00 | 0.03 | 0.00 | 83 | 1009.6 |
| 20260507054512 | 70 | 288 | 2.0 | 9.0 | 0.00 | 0.03 | 0.00 | 81 | 1009.7 |
| 20260507053016 | 70 | 219 | 2.0 | 6.0 | 0.00 | 0.03 | 0.00 | 81 | 1010.0 |
| 20260507051504 | 70 | 241 | 3.0 | 8.0 | 0.00 | 0.03 | 0.00 | 80 | 1010.4 |
| 20260507050017 | 70 | 207 | 3.0 | 7.0 | 0.00 | 0.03 | 0.00 | 78 | 1010.4 |
| 20260507044508 | 70 | 266 | 1.0 | 7.0 | 0.00 | 0.03 | 0.00 | 77 | 1010.6 |
| 20260507043012 | 70 | 308 | 2.0 | 7.0 | 0.00 | 0.03 | 0.00 | 77 | 1010.3 |
| 20260507041519 | 70 | 328 | 3.0 | 9.0 | 0.00 | 0.03 | 0.00 | 77 | 1009.9 |
| 20260507040004 | 70 | 232 | 2.0 | 9.0 | 0.00 | 0.03 | 0.00 | 78 | 1010.1 |
| 20260507034508 | 70 | 250 | 3.0 | 8.0 | 0.00 | 0.03 | 0.03 | 78 | 1010.2 |
| 20260507033012 | 69 | 233 | 2.0 | 5.0 | 0.00 | 0.03 | 0.03 | 79 | 1010.3 |
| 20260507031516 | 69 | 283 | 2.0 | 7.0 | 0.00 | 0.03 | 0.03 | 79 | 1009.9 |
| 20260507030021 | 69 | 219 | 3.0 | 5.0 | 0.00 | 0.03 | 0.03 | 79 | 1010.2 |
| 20260507024505 | 69 | 249 | 2.0 | 7.0 | 0.00 | 0.03 | 0.03 | 79 | 1010.2 |
| 20260507023012 | 69 | 180 | 2.0 | 5.0 | 0.00 | 0.03 | 0.03 | 80 | 1010.4 |
| 20260507021514 | 69 | 211 | 1.0 | 6.0 | 0.00 | 0.03 | 0.03 | 79 | 1010.3 |
| 20260507020018 | 69 | 243 | 1.0 | 4.0 | 0.00 | 0.03 | 0.03 | 79 | 1010.4 |
| 20260507014523 | 69 | 236 | 0.0 | 4.0 | 0.00 | 0.03 | 0.03 | 78 | 1010.4 |
| 20260507013008 | 70 | 136 | 1.0 | 3.0 | 0.00 | 0.03 | 0.03 | 77 | 1010.4 |
| 20260507011516 | 70 | 197 | 1.0 | 3.0 | 0.00 | 0.03 | 0.03 | 76 | 1010.4 |
| 20260507010028 | 70 | 278 | 1.0 | 4.0 | 0.00 | 0.03 | 0.03 | 75 | 1010.4 |
| 20260507004521 | 71 | 262 | 0.0 | 4.0 | 0.00 | 0.03 | 0.03 | 74 | 1010.6 |
| 20260507003025 | 71 | 245 | 2.0 | 8.0 | 0.00 | 0.03 | 0.03 | 73 | 1010.4 |
| 20260507001514 | 72 | 244 | 3.0 | 8.0 | 0.00 | 0.03 | 0.03 | 72 | 1010.3 |
| 20260507000019 | 72 | 284 | 2.0 | 4.0 | 0.00 | 0.03 | 0.03 | 71 | 1010.1 |
| 20260506234505 | 73 | 85 | 2.0 | 6.0 | 0.00 | 0.03 | 0.03 | 69 | 1010.0 |
| 20260506233004 | 73 | 223 | 1.0 | 7.0 | 0.00 | 0.03 | 0.03 | 68 | 1010.1 |
| 20260506231505 | 73 | 245 | 1.0 | 9.0 | 0.00 | 0.03 | 0.03 | 68 | 1009.9 |
| 20260506230004 | 74 | 323 | 2.0 | 8.0 | 0.00 | 0.03 | 0.03 | 67 | 1009.8 |
| 20260506224503 | 74 | 308 | 2.0 | 5.0 | 0.00 | 0.03 | 0.03 | 67 | 1009.7 |
| 20260506223004 | 74 | 198 | 1.0 | 5.0 | 0.00 | 0.03 | 0.03 | 67 | 1009.8 |
| 20260506221505 | 74 | 236 | 2.0 | 7.0 | 0.00 | 0.03 | 0.03 | 67 | 1009.9 |
| 20260506220004 | 74 | 211 | 2.0 | 9.0 | 0.00 | 0.03 | 0.03 | 66 | 1010.1 |
| 20260506214507 | 74 | 243 | 2.0 | 8.0 | 0.00 | 0.03 | 0.03 | 66 | 1010.0 |
| 20260506213004 | 74 | 312 | 4.0 | 8.0 | 0.00 | 0.03 | 0.03 | 66 | 1009.8 |
| 20260506211505 | 74 | 100 | 2.0 | 12.0 | 0.00 | 0.03 | 0.03 | 66 | 1010.1 |
| 20260506210006 | 74 | 248 | 2.0 | 14.0 | 0.00 | 0.03 | 0.03 | 65 | 1010.0 |
| 20260506204509 | 74 | 279 | 4.0 | 9.0 | 0.00 | 0.03 | 0.03 | 65 | 1009.9 |
| 20260506203003 | 74 | 254 | 3.0 | 11.0 | 0.00 | 0.03 | 0.03 | 65 | 1009.6 |
| 20260506201507 | 74 | 150 | 4.0 | 10.0 | 0.00 | 0.03 | 0.03 | 66 | 1009.3 |
| 20260506200010 | 74 | 227 | 2.0 | 13.0 | 0.00 | 0.03 | 0.03 | 66 | 1009.5 |
| 20260506194506 | 73 | 175 | 4.0 | 11.0 | 0.00 | 0.03 | 0.03 | 66 | 1009.9 |
| 20260506193004 | 72 | 300 | 2.0 | 11.0 | 0.00 | 0.03 | 0.03 | 68 | 1010.1 |
| 20260506191507 | 72 | 160 | 3.0 | 10.0 | 0.00 | 0.03 | 0.03 | 69 | 1010.5 |
| 20260506190010 | 71 | 161 | 1.0 | 8.0 | 0.00 | 0.03 | 0.03 | 71 | 1011.0 |
| 20260506184505 | 70 | 127 | 1.0 | 9.0 | 0.00 | 0.03 | 0.03 | 73 | 1011.4 |
| 20260506183008 | 70 | 250 | 4.0 | 11.0 | 0.00 | 0.03 | 0.03 | 74 | 1011.7 |
| 20260506181521 | 71 | 238 | 1.0 | 13.0 | 0.00 | 0.03 | 0.03 | 72 | 1011.7 |
| 20260506180010 | 72 | 225 | 3.0 | 14.0 | 0.00 | 0.03 | 0.03 | 67 | 1011.8 |
| 20260506174506 | 71 | 252 | 3.0 | 11.0 | 0.00 | 0.03 | 0.03 | 69 | 1011.6 |
| 20260506173008 | 70 | 217 | 3.0 | 9.0 | 0.00 | 0.03 | 0.03 | 71 | 1011.6 |
| 20260506171509 | 70 | 211 | 4.0 | 15.0 | 0.00 | 0.03 | 0.03 | 73 | 1011.7 |
| 20260506170006 | 68 | 260 | 2.0 | 8.0 | 0.00 | 0.03 | 0.03 | 75 | 1011.8 |
| 20260506164507 | 67 | 147 | 3.0 | 8.0 | 0.01 | 0.03 | 0.03 | 78 | 1012.4 |
| 20260506163016 | 67 | 124 | 1.0 | 6.0 | 0.02 | 0.03 | 0.03 | 81 | 1012.3 |
| 20260506161502 | 66 | 315 | 2.0 | 7.0 | 0.02 | 0.03 | 0.03 | 82 | 1012.7 |
| 20260506160004 | 66 | 175 | 1.0 | 6.0 | 0.02 | 0.03 | 0.03 | 85 | 1012.9 |
| 20260506154508 | 66 | 149 | 1.0 | 5.0 | 0.02 | 0.02 | 0.02 | 82 | 1013.1 |
| 20260506153008 | 66 | 244 | 1.0 | 6.0 | 0.01 | 0.01 | 0.01 | 80 | 1013.3 |
| 20260506151512 | 66 | 301 | 1.0 | 7.0 | 0.01 | 0.01 | 0.01 | 79 | 1013.4 |
| 20260506150012 | 67 | 229 | 4.0 | 12.0 | 0.01 | 0.01 | 0.01 | 77 | 1013.4 |
| 20260506144509 | 70 | 254 | 1.0 | 10.0 | 0.00 | 0.00 | 0.00 | 71 | 1013.7 |
| 20260506143011 | 69 | 231 | 3.0 | 8.0 | 0.00 | 0.00 | 0.00 | 69 | 1013.1 |
| 20260506141512 | 68 | 183 | 3.0 | 11.0 | 0.00 | 0.00 | 0.00 | 72 | 1013.0 |
| 20260506140020 | 67 | 244 | 3.0 | 5.0 | 0.00 | 0.00 | 0.00 | 74 | 1013.2 |
| 20260506134504 | 66 | 265 | 3.0 | 7.0 | 0.00 | 0.00 | 0.00 | 75 | 1013.0 |
| 20260506133005 | 67 | 243 | 3.0 | 13.0 | 0.00 | 0.00 | 0.00 | 74 | 1013.0 |
| 20260506131509 | 68 | 209 | 4.0 | 11.0 | 0.00 | 0.00 | 0.00 | 70 | 1012.9 |